AD6NH Weather Reports


time (UTC)temp
C
wind
direction
speed
KPH
gust
KPH
rain 1hr
cm
rain 24hr
cm
rain mn
cm
humidity
%
barometer
mb
20260503203702 22 145 3.2 14.5 0.00 0.00 0.00 49 1014.3
20260503202702 22 222 11.3 16.1 0.00 0.00 0.00 49 1014.4
20260503201702 21 180 9.7 12.9 0.00 0.00 0.00 50 1014.5
20260503200702 20 215 4.8 9.7 0.00 0.00 0.00 54 1014.6
20260503195702 20 152 1.6 3.2 0.00 0.00 0.00 54 1014.7
20260503194702 20 233 6.4 6.4 0.00 0.00 0.00 55 1014.9
20260503193702 19 140 6.4 12.9 0.00 0.00 0.00 56 1015.0
20260503192702 19 81 6.4 6.4 0.00 0.00 0.00 57 1015.2
20260503191702 19 177 0.0 4.8 0.00 0.00 0.00 56 1015.2
20260503190702 18 158 3.2 8.0 0.00 0.00 0.00 58 1015.4
20260503185702 18 186 3.2 8.0 0.00 0.00 0.00 60 1015.5
20260503184702 18 152 4.8 9.7 0.00 0.00 0.00 60 1015.5
20260503183702 17 247 1.6 12.9 0.00 0.00 0.00 63 1015.6
20260503182703 17 220 3.2 9.7 0.00 0.00 0.00 63 1015.6
20260503181702 17 216 4.8 9.7 0.00 0.00 0.00 62 1015.6
20260503180702 17 239 6.4 9.7 0.00 0.00 0.00 63 1015.6
20260503175702 17 247 6.4 9.7 0.00 0.00 0.00 65 1015.6
20260503174702 17 240 8.0 9.7 0.00 0.00 0.00 65 1015.5
20260503173702 17 212 6.4 9.7 0.00 0.00 0.00 65 1015.4
20260503172702 17 194 6.4 9.7 0.00 0.00 0.00 65 1015.3
20260503171702 17 190 6.4 12.9 0.00 0.00 0.00 66 1015.2
20260503170702 17 176 4.8 8.0 0.00 0.00 0.00 65 1015.1
20260503150702 16 165 1.6 4.8 0.00 0.00 0.00 72 1014.5
20260503130702 15 247 0.0 1.6 0.00 0.00 0.00 78 1013.6
20260503110702 14 263 3.2 6.4 0.00 0.00 0.00 81 1013.4
20260503080702 15 183 3.2 4.8 0.00 0.00 0.00 84 1014.2
20260503072702 15 171 3.2 4.8 0.00 0.00 0.00 85 1013.8
20260503071702 15 224 1.6 3.2 0.00 0.00 0.00 86 1013.7
20260503070702 15 223 0.0 4.8 0.00 0.00 0.00 86 1013.6
20260503054702 15 166 3.2 4.8 0.00 0.00 0.00 86 1013.5
20260503053702 15 214 0.0 4.8 0.00 0.00 0.00 86 1013.6
20260503052702 15 212 3.2 4.8 0.00 0.00 0.00 85 1013.7
20260503051702 15 185 3.2 6.4 0.00 0.00 0.00 85 1013.7
20260503050702 15 181 1.6 4.8 0.00 0.00 0.00 85 1013.6
20260503045703 15 214 3.2 6.4 0.00 0.00 0.00 84 1013.6
20260503044702 15 182 0.0 4.8 0.00 0.00 0.00 84 1013.5
20260503043702 15 192 4.8 6.4 0.00 0.00 0.00 83 1013.3
20260503042702 15 178 1.6 4.8 0.00 0.00 0.00 83 1013.1
20260503041702 15 165 3.2 6.4 0.00 0.00 0.00 82 1013.1
20260503040702 15 232 3.2 6.4 0.00 0.00 0.00 81 1012.8
20260503035702 16 193 3.2 9.7 0.00 0.00 0.00 80 1012.7
20260503034702 16 208 3.2 6.4 0.00 0.00 0.00 80 1012.7
20260503033702 16 216 1.6 6.4 0.00 0.00 0.00 80 1012.4
20260503032702 16 211 3.2 6.4 0.00 0.00 0.00 79 1012.2
20260503031702 16 204 3.2 8.0 0.00 0.00 0.00 79 1012.2
20260503030702 16 212 4.8 6.4 0.00 0.00 0.00 80 1012.1
20260503025702 16 236 4.8 8.0 0.00 0.00 0.00 78 1011.8
20260503024702 16 230 3.2 12.9 0.00 0.00 0.00 77 1011.7
20260503023702 17 211 3.2 6.4 0.00 0.00 0.00 74 1011.4
20260503022702 17 214 3.2 8.0 0.00 0.00 0.00 73 1011.4
20260503021702 17 238 8.0 16.1 0.00 0.00 0.00 72 1011.3
20260503020702 18 229 8.0 14.5 0.00 0.00 0.00 68 1011.2
20260503015702 19 214 4.8 12.9 0.00 0.00 0.00 66 1011.1
20260503014702 19 192 1.6 6.4 0.00 0.00 0.00 66 1011.0
20260503013702 20 208 6.4 9.7 0.00 0.00 0.00 65 1011.0
20260503012702 20 234 8.0 12.9 0.00 0.00 0.00 63 1011.0
20260503011702 20 225 9.7 12.9 0.00 0.00 0.00 62 1011.1
20260503010702 20 217 6.4 12.9 0.00 0.00 0.00 62 1011.0
20260503005702 21 208 6.4 9.7 0.00 0.00 0.00 60 1011.0
20260503004702 20 200 3.2 9.7 0.00 0.00 0.00 62 1011.0
20260503003702 21 249 9.7 14.5 0.00 0.00 0.00 60 1011.2
20260503002702 21 230 6.4 12.9 0.00 0.00 0.00 60 1011.2
20260503001702 22 216 6.4 12.9 0.00 0.00 0.00 59 1011.2
20260503000702 21 221 3.2 16.1 0.00 0.00 0.00 60 1011.1
20260502235702 22 227 9.7 12.9 0.00 0.00 0.00 57 1011.2
20260502234702 22 195 4.8 6.4 0.00 0.00 0.00 59 1011.2
20260502233702 22 175 6.4 12.9 0.00 0.00 0.00 60 1011.2
20260502232702 22 249 8.0 9.7 0.00 0.00 0.00 59 1011.3
20260502231703 22 224 6.4 9.7 0.00 0.00 0.00 59 1011.3
20260502230702 22 229 6.4 9.7 0.00 0.00 0.00 58 1011.4
20260502225702 22 239 3.2 9.7 0.00 0.00 0.00 61 1011.8
20260502224702 22 258 8.0 14.5 0.00 0.00 0.00 60 1011.9
20260502223702 22 257 9.7 16.1 0.00 0.00 0.00 60 1012.1
20260502222702 22 248 11.3 14.5 0.00 0.00 0.00 60 1012.5
20260502221702 22 188 9.7 19.3 0.00 0.00 0.00 60 1012.5
20260502220702 23 239 6.4 14.5 0.00 0.00 0.00 58 1012.7
20260502215702 21 213 9.7 14.5 0.00 0.00 0.00 63 1012.9
20260502214702 21 239 14.5 17.7 0.00 0.00 0.00 62 1013.0
20260502213702 22 234 9.7 17.7 0.00 0.00 0.00 60 1013.3
20260502212702 22 240 12.9 20.9 0.00 0.00 0.00 61 1013.4
20260502211702 23 244 12.9 16.1 0.00 0.00 0.00 58 1013.4
20260502210702 22 243 4.8 9.7 0.00 0.00 0.00 61 1013.3
20260502205702 22 218 9.7 16.1 0.00 0.00 0.00 61 1013.5
20260502204702 22 206 9.7 12.9 0.00 0.00 0.00 60 1013.4